Temp_Advection
nan nan nan nan nan nan nan nan nan nan nan nan nan nan nan nan nan nan nan nan nan nan nan nan nan nan nan nan nan nan nan nan nan nan nan nan nan nan
nan 0 0 1 2 1 0 0 0 0 0 -0 -0 0 0 0 1 0 0 0 0 -0 0 0 0 0 0 0 0 -0 0 -0 -0 0 0 0 0 nan
nan -1 0 2 3 1 0 0 0 0 0 -0 0 0 0 -0 0 0 0 0 -0 0 0 0 0 0 0 0 0 0 0 0 -0 -0 0 0 0 nan
nan -1 2 3 1 -1 -1 1 0 1 0 0 0 0 0 0 0 0 0 0 0 0 0 0 0 0 0 0 0 0 0 -0 -0 -0 0 0 0 nan
nan 0 -0 0 0 -1 1 1 0 1 1 0 0 0 0 -0 -0 0 0 0 0 0 0 0 0 0 -0 0 0 0 1 0 -0 -0 -0 0 -0 nan
nan -1 -1 0 1 1 -0 -1 1 2 0 -0 -0 -0 -0 -0 0 0 0 0 1 1 0 0 0 -0 0 0 0 0 0 -0 0 0 -0 0 0 nan
nan -0 0 1 1 -0 -1 1 0 -1 -2 -1 -0 -0 -0 -0 0 0 0 1 1 0 0 0 0 0 -0 -0 0 0 0 0 0 -0 0 -0 0 nan
nan -0 0 1 0 -1 1 0 -0 -1 -1 -1 -1 -1 -1 -0 0 0 1 0 0 -0 0 0 0 0 0 0 0 0 0 0 -0 -0 -0 -0 -0 nan
nan -1 -0 -0 -0 0 1 -0 1 0 -0 0 0 -0 -0 0 0 0 0 0 0 0 0 0 0 0 0 0 0 0 0 0 0 -0 -1 -0 -0 nan
nan -0 -0 -0 -0 0 -0 -0 1 0 1 1 -0 -0 1 0 0 0 0 1 1 0 0 1 0 -0 0 0 0 0 0 0 0 -0 -0 -1 -0 nan
nan -0 0 -1 -0 0 -0 0 0 0 -0 -0 0 1 1 -0 0 1 1 0 0 0 0 0 0 0 0 0 0 -0 0 0 -0 -0 0 -0 -1 nan
nan -0 -1 -0 1 -0 0 0 -0 -0 -0 0 0 1 0 0 0 0 0 0 0 0 0 0 0 0 0 0 0 -0 0 0 0 -0 0 0 -0 nan
nan -1 -0 -0 -0 0 1 -0 -1 0 1 0 1 1 0 0 0 0 1 0 0 0 0 0 0 0 0 0 0 0 -0 0 0 0 0 0 0 nan
nan -0 -0 -1 -0 1 -0 -0 0 1 1 1 1 -0 -0 -0 0 0 0 0 0 0 0 0 0 0 0 0 0 0 0 0 -0 0 -0 -0 -0 nan
nan 1 -0 -0 1 1 0 1 1 0 0 0 -1 -0 0 1 1 0 1 1 0 0 0 0 0 0 0 0 0 -0 -0 -0 -0 -0 -0 -0 -0 nan
nan 1 1 2 2 1 1 1 1 0 1 1 1 1 2 1 1 1 1 1 -0 0 0 0 0 0 0 0 0 0 -0 -0 -0 -0 0 0 -0 nan
nan 1 2 1 1 0 1 1 1 0 1 1 1 1 2 1 1 1 1 0 -0 0 0 0 0 0 0 0 0 0 -0 -0 -0 -1 -0 0 0 nan
nan 1 0 1 -1 -1 -0 0 -1 -0 1 0 -0 1 1 1 1 1 0 -0 0 0 0 0 0 1 0 0 0 0 0 -0 -0 -0 -0 -0 -0 nan
nan 0 0 0 -2 -1 0 0 -0 0 -0 -0 0 1 0 1 1 0 -0 -0 0 0 0 0 1 1 0 0 0 0 -0 -0 -0 0 -0 -0 -0 nan
nan -0 1 -0 -1 0 2 1 0 -1 -0 0 1 -0 -0 1 1 0 -0 -0 0 0 0 1 1 1 0 0 0 0 -0 -0 -0 -0 -0 0 -0 nan
nan 1 1 -0 -0 0 1 0 -1 -0 0 1 0 0 1 2 1 0 0 0 1 0 0 0 1 1 0 0 0 0 -0 -0 -0 -0 -0 -1 -1 nan
nan 1 -0 1 1 1 1 0 -0 0 1 1 0 1 1 1 1 1 0 1 0 0 1 1 1 1 0 0 0 0 -0 -0 -0 -0 -0 -1 -2 nan
nan nan nan nan nan nan nan nan nan nan nan nan nan nan nan nan nan nan nan nan nan nan nan nan nan nan nan nan nan nan nan nan nan nan nan nan nan nan
Wind_Speed
64 63 62 57 51 36 27 20 15 14 21 32 29 30 33 32 29 26 26 23 22 20 19 17 16 16 17 18 19 21 23 26 29 32 34 36 40 41
67 65 64 59 53 44 36 29 21 15 11 13 23 28 22 31 30 29 28 25 24 22 19 18 16 17 18 19 20 22 24 27 30 33 35 38 39 41
64 64 61 61 57 51 45 38 29 20 16 11 12 18 24 22 30 31 30 27 26 21 20 18 17 18 19 19 19 22 25 28 31 33 36 37 39 39
61 56 58 61 54 51 49 43 36 31 22 17 15 15 17 22 22 26 31 29 25 23 20 20 18 17 19 18 20 23 26 29 31 34 36 36 36 37
59 55 54 52 54 54 52 50 42 37 29 23 18 15 15 14 17 20 25 29 27 23 21 20 16 18 16 17 21 24 27 28 31 34 33 34 35 37
54 49 50 51 51 57 54 49 46 41 31 26 23 18 15 15 17 19 23 23 24 22 20 18 16 16 15 18 21 23 27 29 31 31 30 34 35 34
57 56 54 52 49 50 47 44 42 41 34 35 31 25 21 18 18 18 18 17 21 22 17 17 15 13 15 18 21 23 27 28 30 27 32 33 33 31
49 49 48 46 46 48 45 39 37 40 41 42 38 33 25 20 17 17 18 19 18 18 17 15 12 14 16 18 20 23 24 27 26 30 32 30 31 30
47 46 46 41 42 47 44 37 35 39 38 37 39 35 29 23 18 19 17 16 17 12 11 11 14 15 15 18 19 21 23 23 28 30 29 29 29 30
50 47 47 43 39 40 40 41 34 34 39 39 36 34 27 21 18 17 16 16 15 13 13 16 13 13 16 17 18 18 20 25 28 29 27 28 30 30
51 47 43 43 39 39 40 41 37 36 39 37 38 30 26 23 23 24 22 18 16 16 16 14 12 14 16 16 14 16 23 26 27 26 26 28 30 31
48 40 42 40 40 39 40 38 40 33 35 37 38 33 30 28 27 27 22 20 19 16 15 13 13 11 11 14 15 19 23 25 24 22 22 25 29 32
45 41 39 41 41 39 39 36 33 31 37 41 40 37 35 34 32 27 23 21 19 18 14 11 12 11 10 14 18 20 22 24 22 18 20 21 26 33
47 48 44 41 39 36 37 34 31 35 38 41 42 41 40 37 35 31 27 24 21 17 17 15 13 10 12 16 17 19 21 22 19 21 20 22 23 26
51 51 49 42 39 38 38 37 38 41 40 41 44 44 43 41 37 33 30 27 23 22 19 15 12 11 13 14 17 20 21 19 16 20 20 24 28 31
51 52 45 43 40 41 40 41 42 41 41 40 43 43 43 42 39 37 34 30 26 24 18 15 12 11 13 15 15 17 18 15 17 18 20 21 26 28
54 57 48 44 45 43 44 44 44 42 43 41 43 42 44 43 41 38 34 30 28 24 18 15 12 13 14 14 13 14 14 14 16 18 19 20 25 26
63 59 47 45 49 48 47 48 45 43 44 41 40 41 44 44 43 39 34 32 28 25 19 16 14 15 13 12 12 12 11 11 12 15 18 21 23 23
61 58 49 52 51 49 47 49 47 43 39 39 41 41 42 43 44 42 38 33 29 25 20 17 19 16 13 11 12 10 8 10 11 13 17 21 25 24
56 59 55 53 52 49 49 49 48 45 44 42 42 42 42 44 45 44 39 36 32 29 24 23 21 17 12 10 9 7 6 7 11 13 18 21 23 20
59 58 59 54 53 49 49 49 48 47 45 45 44 43 42 43 45 44 41 36 31 30 25 24 21 17 13 11 8 5 5 5 9 15 19 23 25 22
51 56 59 55 55 54 51 49 48 47 48 47 45 43 41 43 46 45 42 39 36 30 27 25 22 18 14 12 8 4 4 6 9 15 19 19 20 18
42 51 52 56 54 51 51 51 49 49 49 48 46 43 43 44 45 44 41 38 37 33 31 27 24 20 16 13 9 6 2 2 6 10 13 13 15 15
Wind_Direction
220 227 226 224 220 217 216 215 217 209 222 224 229 232 232 233 233 231 236 238 241 245 252 261 272 282 287 294 302 304 314 318 321 324 326 329 329 329
220 221 227 227 222 218 215 215 215 218 210 224 226 230 231 231 232 232 235 236 240 244 252 260 270 277 283 292 299 306 314 317 321 324 329 328 328 331
222 219 225 226 222 219 221 222 220 217 221 219 224 222 226 226 228 231 235 236 240 245 251 256 261 270 280 290 297 306 312 317 321 326 328 327 328 330
231 232 234 228 225 223 225 226 221 224 226 221 223 218 218 222 226 229 234 235 240 242 245 253 259 270 277 288 301 309 314 317 322 326 328 324 328 331
226 222 227 237 229 226 224 226 219 217 218 224 223 224 222 223 227 229 230 230 233 238 242 250 259 266 277 297 305 312 314 316 324 323 324 329 330 331
227 226 225 227 230 227 225 225 220 217 212 220 224 230 228 226 229 226 227 228 228 230 237 248 256 266 288 299 307 311 314 321 323 322 330 330 329 332
227 225 226 224 227 226 227 223 222 213 209 221 222 224 226 224 227 227 224 226 223 222 229 244 252 273 288 302 309 312 317 321 323 327 331 331 331 335
225 223 223 225 229 224 222 222 219 209 212 218 221 225 225 223 223 224 217 212 210 217 226 239 262 280 288 303 306 312 320 323 325 328 333 333 332 337
226 226 227 224 226 221 220 218 227 222 220 221 225 229 227 225 223 219 210 209 217 216 220 250 262 275 295 301 308 320 323 325 328 333 334 332 335 343
239 233 232 226 220 215 218 219 226 215 214 221 227 234 230 232 228 221 201 204 211 225 235 249 267 285 296 301 316 320 324 331 332 335 335 334 339 340
240 231 229 228 224 215 219 223 224 220 208 221 222 222 222 228 220 203 208 215 219 228 243 258 274 286 295 308 313 320 330 331 335 338 338 337 338 336
223 226 226 225 222 220 221 220 224 220 212 214 211 208 210 218 218 219 228 229 215 227 242 254 270 281 302 305 311 327 329 332 337 338 341 338 334 339
227 222 223 221 221 221 221 223 221 224 211 212 210 206 206 211 217 218 217 212 226 235 242 254 266 276 293 301 312 326 328 332 336 343 346 341 342 344
228 230 222 217 213 216 220 219 218 215 209 210 207 203 206 210 214 218 217 220 224 235 243 249 261 280 298 304 311 322 329 330 332 349 348 343 348 349
227 221 223 217 211 212 214 211 212 211 208 207 207 208 211 213 215 215 218 216 221 240 238 246 253 275 288 297 306 322 329 333 339 346 354 352 353 355
219 223 225 222 211 209 210 210 212 208 209 205 206 208 210 211 215 220 222 227 238 229 225 231 254 271 278 287 306 321 326 334 341 347 356 0 355 3
218 221 218 218 209 207 208 208 208 207 207 207 205 205 209 211 213 219 225 232 227 222 219 230 243 260 269 285 305 316 322 334 342 346 352 4 3 7
209 214 210 214 208 203 207 207 208 208 205 204 207 209 209 209 213 216 218 220 223 216 220 223 238 252 260 277 301 309 324 335 342 344 353 359 11 11
207 211 208 211 206 203 209 208 204 207 205 204 206 208 208 213 213 213 213 211 209 212 212 228 239 244 249 271 292 300 325 332 341 353 358 6 8 12
209 211 209 213 208 204 208 206 204 202 203 205 205 208 210 212 209 208 209 210 210 210 212 229 233 234 236 257 270 291 313 330 343 356 5 10 10 14
205 210 212 210 211 206 208 206 205 203 207 206 206 207 207 207 206 208 208 208 210 209 217 228 228 226 226 244 247 271 294 336 352 1 9 7 4 10
203 208 209 204 208 207 207 206 204 203 204 206 206 206 207 208 208 207 205 206 203 209 219 222 218 215 218 228 227 228 291 352 2 10 6 3 2 9
205 212 211 210 208 206 207 204 202 204 205 206 207 208 208 208 208 207 206 205 204 211 215 212 209 206 208 210 202 193 215 12 25 15 5 6 10 26
Height
1484 1493 1498 1506 1512 1520 1524 1527 1529 1530 1533 1537 1541 1544 1548 1552 1556 1559 1561 1565 1567 1569 1571 1572 1573 1573 1572 1571 1569 1567 1565 1560 1556 1553 1548 1543 1537 1530
1474 1481 1489 1497 1506 1513 1518 1521 1525 1528 1532 1534 1535 1539 1541 1546 1551 1554 1556 1559 1562 1565 1567 1568 1570 1570 1569 1568 1567 1565 1561 1557 1553 1548 1545 1539 1531 1525
1465 1468 1479 1488 1499 1504 1511 1516 1518 1524 1529 1530 1531 1534 1537 1540 1544 1549 1551 1554 1558 1561 1564 1565 1566 1566 1565 1565 1563 1561 1557 1554 1550 1545 1540 1533 1527 1521
1457 1463 1470 1479 1489 1496 1503 1509 1512 1519 1525 1527 1528 1531 1533 1536 1538 1543 1547 1550 1553 1556 1558 1561 1561 1561 1561 1561 1560 1558 1554 1550 1547 1541 1535 1530 1524 1516
1450 1455 1464 1470 1476 1484 1491 1500 1505 1512 1517 1522 1525 1529 1531 1532 1535 1538 1542 1544 1547 1551 1554 1556 1557 1559 1558 1557 1556 1553 1549 1546 1542 1539 1533 1526 1519 1511
1443 1448 1454 1461 1466 1475 1484 1491 1496 1504 1510 1515 1521 1525 1527 1529 1532 1534 1537 1539 1543 1546 1550 1552 1555 1556 1554 1554 1552 1549 1547 1542 1537 1533 1529 1523 1515 1509
1432 1438 1446 1452 1461 1468 1476 1482 1488 1497 1504 1512 1516 1519 1523 1526 1529 1531 1533 1537 1539 1542 1545 1550 1552 1551 1551 1550 1548 1545 1542 1538 1534 1529 1524 1518 1512 1506
1422 1430 1439 1446 1453 1460 1469 1476 1483 1486 1494 1503 1508 1516 1518 1521 1525 1527 1530 1533 1536 1540 1542 1546 1547 1547 1547 1545 1544 1542 1538 1533 1531 1526 1520 1514 1509 1505
1418 1425 1430 1437 1445 1452 1461 1469 1476 1482 1492 1499 1504 1509 1515 1519 1521 1524 1526 1530 1535 1538 1539 1540 1543 1543 1543 1542 1540 1537 1534 1530 1527 1522 1516 1510 1505 1500
1410 1417 1422 1429 1436 1444 1453 1461 1467 1474 1485 1493 1499 1504 1511 1517 1519 1522 1524 1528 1530 1533 1536 1537 1539 1540 1540 1539 1536 1534 1531 1527 1522 1517 1513 1507 1502 1498
1402 1409 1414 1420 1429 1437 1446 1454 1460 1466 1476 1485 1493 1499 1504 1511 1513 1516 1518 1522 1525 1530 1533 1532 1534 1537 1537 1534 1533 1531 1528 1524 1519 1515 1510 1505 1500 1496
1393 1399 1408 1413 1422 1429 1438 1446 1453 1460 1467 1477 1484 1489 1496 1504 1509 1511 1514 1518 1522 1525 1529 1529 1531 1532 1532 1531 1531 1527 1525 1522 1518 1515 1510 1504 1496 1492
1385 1390 1399 1406 1414 1422 1431 1438 1447 1456 1461 1469 1475 1483 1490 1496 1503 1504 1508 1513 1517 1520 1524 1526 1527 1527 1527 1527 1526 1525 1523 1519 1515 1513 1509 1504 1495 1487
1373 1384 1391 1398 1405 1415 1423 1433 1442 1447 1451 1460 1469 1474 1483 1489 1495 1498 1502 1506 1511 1516 1520 1521 1523 1523 1522 1522 1524 1523 1521 1516 1513 1510 1507 1502 1496 1491
1369 1376 1384 1391 1399 1408 1416 1424 1431 1437 1443 1451 1460 1467 1475 1482 1488 1492 1497 1500 1506 1512 1515 1517 1519 1518 1518 1518 1521 1521 1518 1515 1513 1509 1506 1499 1493 1487
1361 1368 1372 1383 1391 1397 1408 1413 1420 1426 1435 1445 1452 1460 1469 1474 1479 1485 1490 1497 1501 1506 1509 1511 1516 1516 1516 1516 1517 1517 1515 1513 1511 1506 1503 1498 1493 1486
1349 1358 1364 1371 1378 1386 1396 1401 1408 1417 1426 1435 1444 1451 1461 1467 1473 1478 1484 1491 1496 1502 1505 1507 1509 1512 1513 1514 1513 1513 1512 1511 1508 1504 1500 1497 1491 1487
1335 1345 1351 1361 1370 1375 1381 1389 1401 1410 1419 1428 1437 1443 1453 1458 1465 1473 1479 1485 1491 1497 1500 1502 1505 1508 1510 1512 1511 1510 1511 1511 1507 1504 1499 1494 1492 1489
1319 1329 1337 1351 1357 1362 1368 1380 1390 1403 1414 1420 1428 1437 1445 1453 1459 1466 1474 1481 1486 1492 1495 1498 1502 1505 1507 1508 1509 1508 1507 1508 1505 1501 1498 1493 1490 1489
1311 1317 1325 1340 1347 1352 1361 1372 1385 1395 1404 1412 1420 1429 1436 1443 1451 1459 1467 1473 1482 1486 1491 1495 1498 1500 1502 1504 1506 1506 1505 1504 1503 1498 1494 1491 1492 1491
1301 1307 1319 1328 1338 1343 1355 1367 1377 1385 1395 1403 1412 1420 1427 1436 1445 1453 1461 1468 1476 1483 1488 1492 1494 1497 1498 1501 1502 1502 1503 1501 1500 1496 1492 1489 1489 1487
1294 1302 1310 1315 1327 1334 1347 1357 1367 1377 1384 1395 1405 1412 1420 1428 1437 1447 1455 1462 1470 1477 1483 1488 1490 1493 1495 1498 1499 1499 1500 1497 1498 1493 1491 1491 1489 1484
1290 1296 1300 1310 1318 1325 1340 1347 1355 1367 1377 1385 1395 1404 1412 1420 1431 1441 1452 1459 1467 1473 1479 1482 1486 1489 1492 1496 1496 1496 1498 1497 1496 1494 1492 1490 1487 1484